Flag for Canada Weather past 2 weeks in Cornwall, Ontario, Canada

Now
25 °F

Chilly.


Feels Like: 25 °F
Forecast: -4 / 24 °F
Wind: 1 mph from North

Location: St Anicet

Current Time: Jan 30, 2015 at 2:10:29 AM

Latest Report: Jan 30, 2015 at 1:00 AM


Visibility: N/A

Pressure: 29.78 "Hg

Humidity: 91%

Dew point: 23 °F

Location of CornwallLocation

Historic Weather in Cornwall — Graph

°F

Cornwall temperature yesterday

Maximum temperature yesterday: 37 °F (at 8:00 PM)
Minimum temperature yesterday: -8 °F (at 6:00 AM)
Average temperature yesterday: 13 °F

Past Weeks' High & Low Weather Summary

 TemperatureHumidityPressure
High45 °F (Jan 18, 2:00 PM)100% (Jan 18, 9:00 PM)30.46 "Hg (Jan 18, 9:00 PM)
Low-16 °F (Jan 26, 6:00 AM)43% (Jan 28, 3:00 PM)29.33 "Hg (Jan 25, 12:00 AM)
Average12 °F73%30.01 "Hg
* Reported Jan 15 1:00 AM — Jan 30 1:00 AM, Cornwall, Weather by CustomWeather, © 2014

Note: Actual official high and low records may vary slightly from our data, if they occured in-between our weather recording intervals... More about our weather records

Advertising

Cornwall weather history for previous 24 hours

 ConditionsComfort  
Time TempWeatherWind HumidityBarometerVisibility
1:00 AM
Jan 30
25 °FChilly.1 mph91%29.78 "HgN/A
12:00 AM26 °FChilly.1 mph92%29.79 "HgN/A
11:00 PM
Jan 29
27 °FChilly.2 mph94%29.80 "HgN/A
10:00 PM28 °FChilly.5 mph94%29.81 "HgN/A
9:00 PM36 °FChilly.9 mph64%29.81 "HgN/A
8:00 PM37 °FChilly.12 mph63%29.82 "HgN/A
7:00 PM28 °FChilly.6 mph82%29.83 "HgN/A
6:00 PM23 °FCold.7 mph94%29.88 "HgN/A
5:00 PM24 °FCold.5 mph61%29.94 "HgN/A
4:00 PM22 °FCold.9 mph61%29.96 "HgN/A
3:00 PM23 °FCold.9 mph63%29.97 "HgN/A
2:00 PM23 °FCold.10 mph62%29.98 "HgN/A
1:00 PM21 °FCold.9 mph58%30.04 "HgN/A
12:00 PM17 °FCold.8 mph53%30.11 "HgN/A
11:00 AM17 °FCold.6 mph51%30.17 "HgN/A
10:00 AM13 °FCold.3 mph45%30.21 "HgN/A
9:00 AM6 °FFrigid.2 mph62%30.25 "HgN/A
8:00 AM-2 °FFrigid.2 mph79%30.28 "HgN/A
7:00 AM-6 °FFrigid.2 mph78%30.30 "HgN/A
6:00 AM-8 °FFrigid.1 mph83%30.30 "HgN/A
5:00 AM-7 °FFrigid.No wind81%30.32 "HgN/A
4:00 AM-6 °FFrigid.No wind80%30.32 "HgN/A
3:00 AM-4 °FFrigid.No wind75%30.33 "HgN/A
2:00 AM-2 °FFrigid.3 mph71%30.33 "HgN/A
Weather by CustomWeather, © 2014

See weather overviewHow to use our weather pages